When you browse on this site, cookies collect data to enhance your experience and personalize the content and advertising you see.
Visit our Privacy Policy to learn more. By continuing to use the site, you agree to this use of cookies and data.
  • In Hungary
  • List of Countries
  • For 7 days
  • Water Temperature
  • Satellite Maps
  • Weather Map
  • News
  • Weather Widgets
  • user-avatar
    Login

    Hourly Weather Coleraine

    Today, 20 January, Sunday

    Time Temperature Precipitation Wind Pressure Humidity
    00:00 +3°C° 0 mm 2 mps 756 mmHg 95%
    01:00 +3°C° 0 mm 2 mps 757 mmHg 95%
    02:00 +3°C° 0 mm 2 mps 757 mmHg 95%
    03:00 +3°C° 0 mm 2 mps 757 mmHg 95%
    04:00 +3°C° 0.4 mm 3 mps 758 mmHg 95%
    05:00 +3°C° 0.4 mm 3 mps 758 mmHg 95%
    06:00 +4°C° 0.4 mm 3 mps 759 mmHg 95%
    07:00 +3°C° 0.5 mm 5 mps 760 mmHg 91%
    08:00 +4°C° 0.5 mm 7 mps 761 mmHg 87%
    09:00 +3°C° 0.5 mm 10 mps 761 mmHg 82%
    10:00 +3°C° 0 mm 9 mps 762 mmHg 79%
    11:00 +3°C° 0 mm 9 mps 763 mmHg 76%
    12:00 +4°C° 0 mm 8 mps 764 mmHg 73%
    13:00 +4°C° 0 mm 8 mps 764 mmHg 73%
    14:00 +4°C° 0 mm 7 mps 765 mmHg 72%
    15:00 +4°C° 0 mm 7 mps 765 mmHg 72%
    16:00 +3°C° 0 mm 6 mps 766 mmHg 73%
    17:00 +2°C° 0 mm 5 mps 766 mmHg 74%
    18:00 +3°C° 0 mm 4 mps 767 mmHg 75%
    19:00 +3°C° 0 mm 4 mps 767 mmHg 77%
    20:00 +2°C° 0 mm 3 mps 767 mmHg 79%
    21:00 +2°C° 0 mm 3 mps 768 mmHg 80%
    22:00 +2°C° 0 mm 3 mps 768 mmHg 82%
    23:00 +1°C° 0 mm 3 mps 767 mmHg 83%

    Tomorrow, 21 January, Monday

    Time Temperature Precipitation Wind Pressure Humidity
    00:00 +1°C° 0 mm 3 mps 767 mmHg 85%
    01:00 +1°C° 0 mm 3 mps 767 mmHg 85%
    02:00 0°C° 0 mm 3 mps 766 mmHg 86%
    03:00 -1°C° 0 mm 4 mps 766 mmHg 86%
    04:00 -1°C° 0 mm 4 mps 765 mmHg 85%
    05:00 -1°C° 0 mm 4 mps 765 mmHg 84%
    06:00 0°C° 0 mm 5 mps 764 mmHg 83%
    07:00 0°C° 0 mm 5 mps 763 mmHg 82%
    08:00 -1°C° 0 mm 6 mps 762 mmHg 81%
    09:00 -1°C° 0 mm 7 mps 761 mmHg 80%
    10:00 0°C° 0 mm 8 mps 760 mmHg 78%
    11:00 +1°C° 0 mm 9 mps 758 mmHg 76%
    12:00 +1°C° 0 mm 9 mps 757 mmHg 74%
    13:00 +2°C° 0.3 mm 10 mps 755 mmHg 76%
    14:00 +2°C° 0.3 mm 10 mps 754 mmHg 79%
    15:00 +2°C° 0.3 mm 11 mps 752 mmHg 81%
    16:00 +1°C° 1.1 mm 10 mps 751 mmHg 81%
    17:00 +1°C° 1.1 mm 8 mps 750 mmHg 80%
    18:00 0°C° 1.1 mm 7 mps 750 mmHg 80%
    19:00 0°C° 0.1 mm 7 mps 749 mmHg 80%
    20:00 -1°C° 0.1 mm 7 mps 749 mmHg 80%
    21:00 -1°C° 0.1 mm 6 mps 749 mmHg 81%
    22:00 -1°C° 0.2 mm 7 mps 748 mmHg 80%
    23:00 -1°C° 0.2 mm 7 mps 748 mmHg 80%

    Day after tomorrow, 22 January, Tuesday

    Time Temperature Precipitation Wind Pressure Humidity
    00:00 -1°C° 0.2 mm 7 mps 748 mmHg 80%
    01:00 -1°C° 0.3 mm 7 mps 748 mmHg 80%
    02:00 -1°C° 0.3 mm 7 mps 747 mmHg 80%
    03:00 -2°C° 0.3 mm 7 mps 747 mmHg 79%
    04:00 -2°C° 0.3 mm 8 mps 747 mmHg 78%
    05:00 -2°C° 0.3 mm 8 mps 747 mmHg 78%
    06:00 -2°C° 0.3 mm 8 mps 747 mmHg 77%
    07:00 -2°C° 0.2 mm 8 mps 748 mmHg 76%
    08:00 -2°C° 0.2 mm 8 mps 748 mmHg 75%
    09:00 -2°C° 0.2 mm 8 mps 748 mmHg 74%
    10:00 -1°C° 0.1 mm 8 mps 749 mmHg 72%
    11:00 -1°C° 0.1 mm 8 mps 749 mmHg 70%
    12:00 0°C° 0.1 mm 8 mps 749 mmHg 67%
    13:00 0°C° 0.2 mm 8 mps 750 mmHg 68%
    14:00 0°C° 0.2 mm 7 mps 750 mmHg 69%
    15:00 0°C° 0.2 mm 7 mps 750 mmHg 69%
    16:00 -1°C° 0.2 mm 7 mps 750 mmHg 71%
    17:00 -1°C° 0.2 mm 7 mps 750 mmHg 73%
    18:00 -1°C° 0.2 mm 7 mps 750 mmHg 75%
    19:00 -1°C° 0.2 mm 7 mps 750 mmHg 76%
    20:00 -1°C° 0.2 mm 7 mps 751 mmHg 77%
    21:00 -1°C° 0.2 mm 7 mps 751 mmHg 78%
    22:00 -1°C° 0.2 mm 6 mps 751 mmHg 78%
    23:00 -1°C° 0.2 mm 6 mps 751 mmHg 79%

    23 January, Wednesday

    Time Temperature Precipitation Wind Pressure Humidity
    00:00 -1°C° 0.2 mm 6 mps 751 mmHg 80%
    01:00 -1°C° 0.2 mm 6 mps 752 mmHg 80%
    02:00 0°C° 0.2 mm 5 mps 752 mmHg 80%
    03:00 0°C° 0.2 mm 5 mps 752 mmHg 80%
    04:00 0°C° 0.1 mm 5 mps 752 mmHg 81%
    05:00 0°C° 0.1 mm 5 mps 752 mmHg 81%
    06:00 -1°C° 0.1 mm 4 mps 752 mmHg 82%
    07:00 0°C° 0 mm 4 mps 753 mmHg 82%
    08:00 0°C° 0 mm 4 mps 753 mmHg 82%
    09:00 0°C° 0 mm 4 mps 754 mmHg 82%
    10:00 +1°C° 0 mm 4 mps 754 mmHg 82%
    11:00 +3°C° 0 mm 4 mps 754 mmHg 81%
    12:00 +4°C° 0 mm 4 mps 754 mmHg 80%
    13:00 +4°C° 0 mm 4 mps 754 mmHg 82%
    14:00 +4°C° 0 mm 4 mps 754 mmHg 84%
    15:00 +4°C° 0 mm 4 mps 754 mmHg 86%
    16:00 +3°C° 0.1 mm 3 mps 754 mmHg 88%
    17:00 +3°C° 0.1 mm 3 mps 754 mmHg 91%
    18:00 +4°C° 0.1 mm 2 mps 755 mmHg 94%
    19:00 +3°C° 0 mm 3 mps 755 mmHg 95%
    20:00 +3°C° 0 mm 3 mps 755 mmHg 95%
    21:00 +3°C° 0 mm 3 mps 755 mmHg 96%
    22:00 +3°C° 0 mm 3 mps 755 mmHg 96%
    23:00 +3°C° 0 mm 3 mps 755 mmHg 96%

    24 January, Thursday

    Time Temperature Precipitation Wind Pressure Humidity
    00:00 +3°C° 0 mm 3 mps 755 mmHg 96%
    01:00 +3°C° 0.5 mm 3 mps 755 mmHg 96%
    02:00 +4°C° 0.5 mm 2 mps 755 mmHg 97%
    03:00 +5°C° 0.5 mm 2 mps 755 mmHg 98%
    04:00 +5°C° 0.8 mm 2 mps 755 mmHg 98%
    05:00 +7°C° 0.8 mm 1 mps 755 mmHg 98%
    06:00 +7°C° 0.8 mm 1 mps 755 mmHg 98%
    07:00 +7°C° 0.5 mm 1 mps 755 mmHg 98%
    08:00 +7°C° 0.5 mm 1 mps 755 mmHg 98%
    09:00 +7°C° 0.5 mm 1 mps 756 mmHg 98%
    10:00 +8°C° 0.2 mm 1 mps 756 mmHg 98%
    11:00 +7°C° 0.2 mm 2 mps 756 mmHg 98%
    12:00 +8°C° 0.2 mm 2 mps 757 mmHg 98%
    13:00 +7°C° 0.4 mm 4 mps 757 mmHg 97%
    14:00 +8°C° 0.4 mm 5 mps 757 mmHg 97%
    15:00 +8°C° 0.4 mm 7 mps 757 mmHg 96%
    16:00 +8°C° 0.1 mm 7 mps 757 mmHg 96%
    17:00 +8°C° 0.1 mm 7 mps 758 mmHg 96%
    18:00 +8°C° 0.1 mm 7 mps 758 mmHg 96%
    19:00 +8°C° 0 mm 6 mps 759 mmHg 96%
    20:00 +8°C° 0 mm 5 mps 759 mmHg 97%
    21:00 +8°C° 0 mm 4 mps 760 mmHg 97%
    22:00 +8°C° 0 mm 5 mps 760 mmHg 97%
    23:00 +8°C° 0 mm 5 mps 760 mmHg 97%

    25 January, Friday

    Time Temperature Precipitation Wind Pressure Humidity
    00:00 +8°C° 0 mm 5 mps 760 mmHg 96%
    01:00 +7°C° 0 mm 5 mps 760 mmHg 96%
    02:00 +7°C° 0 mm 4 mps 760 mmHg 96%
    03:00 +6°C° 0 mm 4 mps 760 mmHg 95%
    04:00 +7°C° 0 mm 4 mps 760 mmHg 94%
    05:00 +7°C° 0 mm 4 mps 760 mmHg 94%
    06:00 +7°C° 0 mm 4 mps 760 mmHg 93%
    07:00 +7°C° 0 mm 5 mps 760 mmHg 93%
    08:00 +6°C° 0 mm 5 mps 760 mmHg 93%
    09:00 +5°C° 0 mm 5 mps 760 mmHg 93%
    10:00 +6°C° 0 mm 5 mps 760 mmHg 91%
    11:00 +7°C° 0 mm 5 mps 760 mmHg 89%
    12:00 +8°C° 0 mm 6 mps 760 mmHg 87%
    13:00 +8°C° 0.1 mm 6 mps 759 mmHg 88%
    14:00 +8°C° 0.1 mm 7 mps 759 mmHg 89%
    15:00 +8°C° 0.1 mm 7 mps 758 mmHg 90%
    16:00 +8°C° 0.3 mm 6 mps 758 mmHg 91%
    17:00 +8°C° 0.3 mm 6 mps 758 mmHg 93%
    18:00 +9°C° 0.3 mm 5 mps 758 mmHg 94%
    19:00 +8°C° 0.1 mm 5 mps 758 mmHg 93%
    20:00 +7°C° 0.1 mm 5 mps 758 mmHg 93%
    21:00 +7°C° 0.1 mm 4 mps 758 mmHg 92%
    22:00 +6°C° 0.3 mm 4 mps 758 mmHg 92%
    23:00 +6°C° 0.3 mm 4 mps 758 mmHg 92%
    Show more